Columbia, MO

6:51 AM CDT on July 23, 2017 (GMT -0500)
Columbia Regional

Weather History for KCOU - March, 2014

Change the Weather History Date:

Saturday, March 1, 2014

  Actual Average Record
Temperature  
Mean Temperature 29 °F 39 °F  
Max Temperature 40 °F 49 °F 77 °F (1992)
Min Temperature 17 °F 29 °F -6 °F (1890)
Degree Days  
Heating Degree Days 36 26  
Month to date heating degree days 36 26  
Since 1 July heating degree days 4465 3972  
Cooling Degree Days 0 0  
Month to date cooling degree days 0 0  
Year to date cooling degree days 0 0  
Moisture  
Dew Point 21 °F    
Average Humidity 78    
Maximum Humidity 92    
Minimum Humidity 64    
Precipitation  
Precipitation T in 0.08 in 0.69 in (1973)
Month to date precipitation T 0.08  
Year to date precipitation 2.26 4.25  
Snow  
Snow T in 0.10 in 6.20 in (1953)
Month to date snowfall T 0.1  
Since 1 July snowfall 17.3 16.2  
Snow Depth 0.00 in    
Sea Level Pressure  
Sea Level Pressure 30.20 in    
Wind  
Wind Speed 12 mph (NNE)    
Max Wind Speed 21 mph    
Max Gust Speed 25 mph    
Visibility 8 miles    
Events Rain , Snow    
T = Trace of Precipitation, MM = Missing Value Source: NWS Daily Summary

Daily Weather History Graph

Daily Weather History Graph

Search for Another Location

Airport or City:

Trip Planner

Search our weather history database for the weather conditions in past years. The results will help you decide how hot, cold, wet, or windy it might be!

Date:

Astronomy

Mar. 01, 2014 Rise Set
Actual Time 6:41 AM CST 6:01 PM CST
Civil Twilight 6:14 AM CST 6:28 PM CST
Nautical Twilight 5:43 AM CST 6:59 PM CST
Astronomical Twilight 5:12 AM CST 7:30 PM CST
Moon 6:35 AM CST (3/1) 6:48 PM CST (3/1)
Length of Visible Light 12h 13m
Length of Day
11h 20m
New Moon, 0% of the Moon is Illuminated
Mar 1
New Moon
Mar 8
First Quarter
Mar 16
Full
Mar 23
Last Quarter
Mar 30
New

Hourly Weather History & Observations

Time (CST) Temp. Windchill Dew Point Humidity Pressure Visibility Wind Dir Wind Speed Gust Speed Precip Events Conditions
12:54 AM 39.0 °F 34.8 °F 28.0 °F 65% 30.03 in 10.0 mi SSW 5.8 mph - N/A   Overcast
1:54 AM 37.9 °F 33.5 °F 28.0 °F 68% 30.03 in 10.0 mi SW 5.8 mph - N/A   Overcast
2:54 AM 37.9 °F 34.4 °F 28.9 °F 70% 30.03 in 10.0 mi WSW 4.6 mph - N/A   Overcast
3:54 AM 37.0 °F 33.3 °F 28.0 °F 70% 30.05 in 10.0 mi WNW 4.6 mph - N/A   Overcast
4:16 AM 37.0 °F - 28.0 °F 70% 30.04 in 10.0 mi Calm Calm - N/A   Scattered Clouds
4:54 AM 35.1 °F 32.2 °F 28.0 °F 76% 30.07 in 10.0 mi West 3.5 mph - N/A   Clear
5:54 AM 30.0 °F 21.7 °F 24.1 °F 79% 30.11 in 10.0 mi North 9.2 mph - N/A   Clear
6:54 AM 30.0 °F 19.1 °F 24.1 °F 79% 30.14 in 10.0 mi North 15.0 mph - N/A   Overcast
7:54 AM 30.0 °F 19.5 °F 23.0 °F 75% 30.18 in 9.0 mi North 13.8 mph - N/A   Overcast
8:28 AM 28.0 °F 17.0 °F 21.9 °F 78% 30.17 in 10.0 mi North 13.8 mph - N/A   Overcast
8:54 AM 28.9 °F 19.2 °F 21.9 °F 75% 30.20 in 10.0 mi North 11.5 mph - N/A   Overcast
9:54 AM 28.0 °F 18.6 °F 21.0 °F 75% 30.23 in 10.0 mi NNE 10.4 mph - N/A   Overcast
10:19 AM 28.0 °F 17.0 °F 21.0 °F 75% 30.21 in 10.0 mi North 13.8 mph - N/A   Overcast
10:54 AM 28.9 °F 19.2 °F 21.0 °F 72% 30.22 in 10.0 mi NE 11.5 mph - N/A   Overcast
11:02 AM 28.9 °F 19.8 °F 21.0 °F 72% 30.20 in 10.0 mi NNE 10.4 mph - N/A   Overcast
11:54 AM 28.9 °F 18.6 °F 21.0 °F 72% 30.23 in 10.0 mi North 12.7 mph - N/A   Overcast
12:54 PM 27.0 °F 16.1 °F 21.0 °F 78% 30.23 in 10.0 mi North 12.7 mph - N/A   Overcast
1:54 PM 26.1 °F 15.0 °F 19.9 °F 78% 30.21 in 10.0 mi NNE 12.7 mph - N/A   Overcast
2:54 PM 26.1 °F 14.5 °F 19.9 °F 78% 30.21 in 10.0 mi NNE 13.8 mph - N/A   Overcast
3:29 PM 26.1 °F 16.2 °F 19.0 °F 75% 30.19 in 10.0 mi NE 10.4 mph - N/A   Overcast
3:41 PM 26.1 °F 15.6 °F 19.0 °F 75% 30.17 in 10.0 mi NE 11.5 mph - N/A   Overcast
3:54 PM 26.1 °F 15.0 °F 19.0 °F 75% 30.22 in 10.0 mi North 12.7 mph - N/A   Overcast
4:54 PM 24.1 °F 12.0 °F 19.0 °F 81% 30.23 in 5.0 mi NNE 13.8 mph - 0.00 in   Overcast
5:15 PM 24.1 °F 11.0 °F 19.0 °F 81% 30.20 in 5.0 mi NNE 16.1 mph - 0.00 in   Haze
5:25 PM 23.0 °F 9.6 °F 19.0 °F 85% 30.20 in 5.0 mi NNE 16.1 mph - 0.00 in   Overcast
5:32 PM 23.0 °F 10.1 °F 19.0 °F 85% 30.20 in 4.0 mi NE 15.0 mph - 0.00 in Rain Light Freezing Rain
5:51 PM 23.0 °F 9.6 °F 19.4 °F 86% 30.20 in 4.0 mi NNE 16.1 mph - 0.00 in Rain Light Freezing Rain
5:54 PM 23.0 °F 9.6 °F 19.0 °F 85% 30.23 in 4.0 mi NNE 16.1 mph - 0.00 in   Overcast
6:54 PM 21.9 °F 8.2 °F 19.0 °F 89% 30.25 in 5.0 mi NE 16.1 mph - N/A   Overcast
7:34 PM 21.9 °F 6.9 °F 18.0 °F 85% 30.23 in 5.0 mi NNE 19.6 mph - N/A   Overcast
7:50 PM 21.2 °F 6.8 °F 17.6 °F 86% 30.23 in 4.0 mi NNE 17.3 mph - 0.00 in Rain Light Freezing Rain
7:54 PM 21.9 °F 8.2 °F 18.0 °F 85% 30.27 in 4.0 mi NNE 16.1 mph - 0.00 in Rain Light Freezing Rain
8:42 PM 21.0 °F 8.6 °F 18.0 °F 88% 30.23 in 4.0 mi NNE 12.7 mph - 0.00 in   Overcast
8:54 PM 21.0 °F 7.6 °F 18.0 °F 88% 30.27 in 4.0 mi NNE 15.0 mph - 0.00 in Rain Light Freezing Rain
9:54 PM 21.0 °F 8.1 °F 18.0 °F 88% 30.31 in 4.0 mi North 13.8 mph - 0.00 in Rain Light Freezing Rain
10:01 PM 19.9 °F 6.7 °F 18.0 °F 92% 30.28 in 3.0 mi North 13.8 mph - 0.00 in Snow Light Snow
10:54 PM 19.0 °F 4.5 °F 15.1 °F 85% 30.31 in 6.0 mi NNE 16.1 mph - 0.00 in   Overcast
11:16 PM 18.0 °F 2.2 °F 15.1 °F 88% 30.28 in 7.0 mi North 18.4 mph - 0.00 in Rain Light Freezing Rain
11:29 PM 18.0 °F 4.8 °F 15.1 °F 88% 30.26 in 7.0 mi NNE 12.7 mph - 0.00 in   Overcast
11:42 PM 18.0 °F 3.6 °F 15.1 °F 88% 30.28 in 5.0 mi North 15.0 mph - 0.00 in Rain Light Freezing Rain
11:54 PM 17.1 °F 3.6 °F 14.0 °F 88% 30.30 in 4.0 mi NNE 12.7 mph - 0.00 in Snow Light Snow